• In Germany
  • List of Countries
  • For 7 days
  • Water Temperature
  • Satellite Maps
  • Weather Map
  • Weather Widgets
  • user-avatar
    Login

    Hourly Weather Konstantyna

    Today, 23 May, Wednesday

    Time Temperature Precipitation Wind Pressure Humidity
    00:00 +14°C° 0 mm 1 mps 710 mmHg 86%
    01:00 +14°C° 0 mm 1 mps 710 mmHg 86%
    02:00 +14°C° 0 mm 1 mps 710 mmHg 86%
    03:00 +14°C° 0 mm 1 mps 710 mmHg 86%
    04:00 +15°C° 0 mm 1 mps 710 mmHg 82%
    05:00 +16°C° 0 mm 1 mps 711 mmHg 78%
    06:00 +18°C° 0 mm 1 mps 711 mmHg 73%
    07:00 +20°C° 0 mm 1 mps 712 mmHg 66%
    08:00 +21°C° 0 mm 1 mps 712 mmHg 59%
    09:00 +23°C° 0 mm 1 mps 712 mmHg 51%
    10:00 +24°C° 0 mm 1 mps 713 mmHg 46%
    11:00 +25°C° 0 mm 1 mps 713 mmHg 41%
    12:00 +27°C° 0 mm 2 mps 713 mmHg 36%
    13:00 +27°C° 0 mm 2 mps 713 mmHg 37%
    14:00 +27°C° 0 mm 3 mps 712 mmHg 38%
    15:00 +27°C° 0 mm 3 mps 712 mmHg 38%
    16:00 +26°C° 0 mm 3 mps 712 mmHg 46%
    17:00 +25°C° 0 mm 2 mps 712 mmHg 53%
    18:00 +23°C° 0 mm 2 mps 711 mmHg 60%
    19:00 +21°C° 0 mm 2 mps 712 mmHg 66%
    20:00 +20°C° 0 mm 2 mps 712 mmHg 72%
    21:00 +19°C° 0 mm 1 mps 712 mmHg 77%
    22:00 +19°C° 0 mm 1 mps 712 mmHg 77%
    23:00 +19°C° 0 mm 1 mps 712 mmHg 77%

    Tomorrow, 24 May, Thursday

    Time Temperature Precipitation Wind Pressure Humidity
    00:00 +18°C° 0 mm 2 mps 711 mmHg 77%
    01:00 +17°C° 0 mm 2 mps 711 mmHg 76%
    02:00 +17°C° 0 mm 2 mps 711 mmHg 74%
    03:00 +17°C° 0 mm 2 mps 711 mmHg 73%
    04:00 +18°C° 0 mm 2 mps 711 mmHg 69%
    05:00 +20°C° 0 mm 2 mps 711 mmHg 64%
    06:00 +21°C° 0 mm 2 mps 711 mmHg 60%
    07:00 +24°C° 0 mm 2 mps 711 mmHg 51%
    08:00 +26°C° 0 mm 2 mps 712 mmHg 43%
    09:00 +29°C° 0 mm 2 mps 712 mmHg 35%
    10:00 +30°C° 0 mm 2 mps 712 mmHg 32%
    11:00 +31°C° 0 mm 2 mps 712 mmHg 29%
    12:00 +32°C° 0 mm 2 mps 712 mmHg 26%
    13:00 +32°C° 0 mm 2 mps 712 mmHg 28%
    14:00 +32°C° 0 mm 2 mps 711 mmHg 30%
    15:00 +32°C° 0 mm 2 mps 711 mmHg 31%
    16:00 +30°C° 0 mm 2 mps 711 mmHg 40%
    17:00 +29°C° 0 mm 2 mps 710 mmHg 48%
    18:00 +27°C° 0 mm 2 mps 710 mmHg 56%
    19:00 +26°C° 0 mm 2 mps 710 mmHg 61%
    20:00 +24°C° 0 mm 2 mps 710 mmHg 66%
    21:00 +23°C° 0 mm 1 mps 711 mmHg 71%
    22:00 +23°C° 0 mm 1 mps 710 mmHg 69%
    23:00 +21°C° 0 mm 2 mps 710 mmHg 67%

    Day after tomorrow, 25 May, Friday

    Time Temperature Precipitation Wind Pressure Humidity
    00:00 +21°C° 0 mm 2 mps 710 mmHg 66%
    01:00 +21°C° 0 mm 2 mps 709 mmHg 64%
    02:00 +21°C° 0 mm 2 mps 709 mmHg 62%
    03:00 +20°C° 0 mm 2 mps 709 mmHg 60%
    04:00 +21°C° 0 mm 2 mps 709 mmHg 58%
    05:00 +23°C° 0 mm 2 mps 709 mmHg 56%
    06:00 +24°C° 0 mm 2 mps 709 mmHg 54%
    07:00 +27°C° 0 mm 2 mps 710 mmHg 45%
    08:00 +29°C° 0 mm 2 mps 710 mmHg 37%
    09:00 +31°C° 0 mm 3 mps 711 mmHg 29%
    10:00 +33°C° 0 mm 3 mps 711 mmHg 27%
    11:00 +34°C° 0 mm 3 mps 711 mmHg 24%
    12:00 +35°C° 0 mm 2 mps 711 mmHg 22%
    13:00 +35°C° 0 mm 3 mps 710 mmHg 22%
    14:00 +35°C° 0 mm 3 mps 710 mmHg 23%
    15:00 +35°C° 0 mm 3 mps 709 mmHg 24%
    16:00 +33°C° 0 mm 3 mps 709 mmHg 31%
    17:00 +31°C° 0 mm 2 mps 709 mmHg 39%
    18:00 +29°C° 0 mm 2 mps 709 mmHg 46%
    19:00 +28°C° 0 mm 2 mps 709 mmHg 48%
    20:00 +26°C° 0 mm 2 mps 709 mmHg 49%
    21:00 +25°C° 0 mm 1 mps 709 mmHg 50%
    22:00 +24°C° 0 mm 2 mps 709 mmHg 50%
    23:00 +24°C° 0 mm 2 mps 709 mmHg 49%

    26 May, Saturday

    Time Temperature Precipitation Wind Pressure Humidity
    00:00 +23°C° 0 mm 2 mps 708 mmHg 48%
    01:00 +23°C° 0 mm 2 mps 708 mmHg 47%
    02:00 +23°C° 0 mm 2 mps 708 mmHg 46%
    03:00 +23°C° 0 mm 2 mps 708 mmHg 45%
    04:00 +24°C° 0 mm 2 mps 708 mmHg 46%
    05:00 +24°C° 0 mm 1 mps 709 mmHg 46%
    06:00 +25°C° 0 mm 1 mps 709 mmHg 46%
    07:00 +27°C° 0 mm 2 mps 709 mmHg 40%
    08:00 +30°C° 0 mm 2 mps 710 mmHg 34%
    09:00 +33°C° 0 mm 3 mps 710 mmHg 28%
    10:00 +34°C° 0 mm 4 mps 710 mmHg 25%
    11:00 +35°C° 0 mm 5 mps 710 mmHg 23%
    12:00 +38°C° 0 mm 6 mps 711 mmHg 20%
    13:00 +36°C° 0 mm 5 mps 710 mmHg 21%
    14:00 +36°C° 0 mm 5 mps 710 mmHg 21%
    15:00 +36°C° 0 mm 4 mps 710 mmHg 22%
    16:00 +34°C° 0 mm 3 mps 709 mmHg 28%
    17:00 +33°C° 0 mm 3 mps 709 mmHg 35%
    18:00 +30°C° 0 mm 2 mps 709 mmHg 41%
    19:00 +29°C° 0 mm 2 mps 709 mmHg 42%
    20:00 +28°C° 0 mm 2 mps 710 mmHg 42%
    21:00 +27°C° 0 mm 2 mps 711 mmHg 43%
    22:00 +26°C° 0 mm 2 mps 710 mmHg 43%
    23:00 +26°C° 0 mm 2 mps 710 mmHg 44%

    27 May, Sunday

    Time Temperature Precipitation Wind Pressure Humidity
    00:00 +25°C° 0 mm 2 mps 710 mmHg 44%
    01:00 +25°C° 0 mm 2 mps 710 mmHg 47%
    02:00 +24°C° 0 mm 1 mps 709 mmHg 49%
    03:00 +24°C° 0 mm 1 mps 709 mmHg 51%
    04:00 +24°C° 0 mm 1 mps 709 mmHg 52%
    05:00 +25°C° 0 mm 1 mps 710 mmHg 52%
    06:00 +25°C° 0 mm 2 mps 710 mmHg 53%
    07:00 +27°C° 0 mm 2 mps 710 mmHg 46%
    08:00 +29°C° 0 mm 2 mps 711 mmHg 40%
    09:00 +31°C° 0 mm 2 mps 711 mmHg 34%
    10:00 +33°C° 0 mm 3 mps 711 mmHg 31%
    11:00 +35°C° 0 mm 3 mps 711 mmHg 29%
    12:00 +36°C° 0 mm 3 mps 711 mmHg 26%
    13:00 +36°C° 0 mm 3 mps 710 mmHg 26%
    14:00 +36°C° 0 mm 3 mps 710 mmHg 27%
    15:00 +36°C° 0 mm 3 mps 709 mmHg 28%
    16:00 +34°C° 0 mm 3 mps 708 mmHg 34%
    17:00 +31°C° 0 mm 3 mps 708 mmHg 40%
    18:00 +30°C° 0 mm 3 mps 707 mmHg 47%
    19:00 +28°C° 0.1 mm 3 mps 708 mmHg 50%
    20:00 +27°C° 0.1 mm 2 mps 708 mmHg 53%
    21:00 +26°C° 0.1 mm 2 mps 709 mmHg 56%
    22:00 +25°C° 0.1 mm 2 mps 708 mmHg 61%
    23:00 +24°C° 0.1 mm 1 mps 708 mmHg 65%

    28 May, Monday

    Time Temperature Precipitation Wind Pressure Humidity
    00:00 +23°C° 0.1 mm 1 mps 708 mmHg 70%
    01:00 +23°C° 0 mm 1 mps 708 mmHg 70%
    02:00 +23°C° 0 mm 2 mps 708 mmHg 70%
    03:00 +23°C° 0 mm 2 mps 707 mmHg 69%
    04:00 +21°C° 0 mm 2 mps 708 mmHg 71%
    05:00 +21°C° 0 mm 2 mps 708 mmHg 73%
    06:00 +21°C° 0 mm 2 mps 708 mmHg 75%
    07:00 +23°C° 0 mm 2 mps 708 mmHg 69%
    08:00 +25°C° 0 mm 2 mps 708 mmHg 63%
    09:00 +26°C° 0 mm 3 mps 709 mmHg 57%
    10:00 +27°C° 0.1 mm 3 mps 709 mmHg 52%
    11:00 +29°C° 0.1 mm 4 mps 708 mmHg 47%
    12:00 +32°C° 0.1 mm 4 mps 708 mmHg 41%
    13:00 +30°C° 0 mm 4 mps 708 mmHg 45%
    14:00 +30°C° 0 mm 5 mps 707 mmHg 48%
    15:00 +29°C° 0 mm 5 mps 707 mmHg 51%
    16:00 +28°C° 0 mm 4 mps 707 mmHg 58%
    17:00 +26°C° 0 mm 4 mps 707 mmHg 64%
    18:00 +24°C° 0 mm 3 mps 707 mmHg 71%
    19:00 +22°C° 0 mm 3 mps 707 mmHg 76%
    20:00 +21°C° 0 mm 3 mps 707 mmHg 81%
    21:00 +20°C° 0 mm 2 mps 707 mmHg 86%
    22:00 +19°C° 0 mm 2 mps 707 mmHg 87%
    23:00 +19°C° 0 mm 2 mps 706 mmHg 88%
    Show more